Effective Sunday, March 17, 2024, the National Weather Service National Data Buoy Center will discontinue its Dial-A-Buoy Interactive Voice Response system. For more information, see Service Change Notice 24-06 (PDF).

Station SHBL1 - 8761305 - Shell Beach, LA Image indicating link to RSS feed of recent meteorological observations for station SHBL1


Conditions at SHBL1 as of
(12:00 am CST)
0600 GMT on 03/02/2024:
     

Click on the graph icon in the table below to see a time series plot of the last five days of that observation.

5-day plot - Wind Direction Wind Direction (WDIR): N ( 350 deg true )
5-day plot - Wind Speed Wind Speed (WSPD): 7.0 kts
5-day plot - Wind Gust Wind Gust (GST): 8.0 kts
5-day plot - Atmospheric Pressure Atmospheric Pressure (PRES):30.08 in
5-day plot - Pressure Tendency Pressure Tendency (PTDY):-0.03 in ( Falling )
5-day plot - Air Temperature Air Temperature (ATMP): 60.3 °F
5-day plot - Water Temperature Water Temperature (WTMP): 56.7 °F
5-day plot - Wind Speed at 10 Meters Wind Speed at 10 meters (WSPD10M): 7.8 kts
5-day plot - Wind Speed at 20 Meters Wind Speed at 20 meters (WSPD20M): 7.8 kts
5-day plot -  Wind Speed, Wind Gust and Atmospheric Pressure Combined plot of Wind Speed, Gust, and Air Pressure
NOS Water Level Observation Network Water Level
Previous observations
TIME
(CST)
5-day plot - Wind Direction
WDIR
 
5-day plot - Wind Speed
WSPD
kts
5-day plot - Wind Gust
GST
kts
5-day plot - Wave Height
WVHT
ft
5-day plot - Dominant Wave Period
DPD
sec
5-day plot - Average Wave Period
APD
sec
5-day plot - Mean Wave Direction
MWD
 
5-day plot - Atmospheric Pressure
PRES
in
5-day plot - Pressure Tendency
PTDY
in
5-day plot - Air Temperature
ATMP
°F
5-day plot - Water Temperature
WTMP
°F
5-day plot - Dew Point
DEWP
°F
5-day plot - Salinity
SAL
psu
5-day plot - Visibility
VIS
nmi
5-day plot - Tide (above MLLW)
TIDE
ft
2024-03-01 11:54 pm N 6.0 8.0----30.08- 60.3 56.7----
2024-03-01 11:48 pm N 7.0 8.0----30.08- 60.3 56.7----
2024-03-01 11:42 pm N 5.1 6.0----30.09- 60.4 56.7----
2024-03-01 11:36 pm N 7.0 8.0----30.09- 60.6 56.7----
2024-03-01 11:30 pm N 6.0 7.0----30.09- 60.6 56.7----
2024-03-01 11:24 pm N 6.0 6.0----30.09- 60.8 56.7----
2024-03-01 11:18 pm N 5.1 6.0----30.09- 60.8 56.7----
2024-03-01 11:12 pmNNW 6.0 7.0----30.10- 61.2 56.7----
2024-03-01 11:06 pmNNW 5.1 5.1----30.10- 61.3 56.7----
2024-03-01 11:00 pmNNW 5.1 5.1----30.10+0.01 61.2 56.7----
2024-03-01 10:54 pm N 2.9 4.1----30.10- 61.2 56.7----
2024-03-01 10:48 pm N 2.9 4.1----30.10- 61.2 56.7----
2024-03-01 10:42 pm N 4.1 4.1----30.10- 61.2 56.7----
2024-03-01 10:36 pm N 2.9 4.1----30.11- 61.0 56.7----
2024-03-01 10:30 pm NE 2.9 2.9----30.10- 61.0 56.7----
2024-03-01 10:24 pmENE 2.9 2.9----30.10- 61.0 56.7----
2024-03-01 10:18 pmENE 1.9 4.1----30.11- 61.0 56.7----
2024-03-01 10:12 pmENE 4.1 4.1----30.10- 61.0 56.7----
2024-03-01 10:06 pm E 2.9 4.1----30.10- 61.0 56.7----
2024-03-01 10:00 pm E 1.9 4.1----30.11+0.03 61.2 56.7----
2024-03-01 09:54 pmENE 2.9 5.1----30.11- 61.2 56.7----
2024-03-01 09:48 pmENE 4.1 5.1----30.10- 61.2 56.7----
2024-03-01 09:42 pm E 5.1 6.0----30.10- 61.2 56.7----
2024-03-01 09:36 pm NE 4.1 5.1----30.11- 61.2 56.7----
2024-03-01 09:30 pmENE 5.1 5.1----30.11- 61.2 56.7----
2024-03-01 09:24 pmENE 4.1 5.1----30.11- 61.0 56.7----
2024-03-01 09:18 pm NE 5.1 7.0----30.10- 60.8 56.7----
2024-03-01 09:12 pm NE 5.1 6.0----30.10- 60.8 56.7----
2024-03-01 09:06 pmNNE 5.1 8.0----30.11- 60.8 56.7----
2024-03-01 09:00 pm N 7.0 8.0----30.11+0.05 60.8 56.7----
2024-03-01 08:54 pmNNE 6.0 7.0----30.11- 60.8 56.7----
2024-03-01 08:48 pmNNE 6.0 8.9----30.11- 60.6 56.7----
2024-03-01 08:42 pm NE 8.0 8.0----30.09- 60.6 56.7----
2024-03-01 08:36 pmNNE 5.1 6.0----30.10- 60.6 56.7----
2024-03-01 08:30 pmNNE 5.1 6.0----30.09- 60.6 56.7----
2024-03-01 08:24 pm N 5.1 8.0----30.10- 60.6 56.8----
2024-03-01 08:18 pm N 7.0 8.9----30.10- 60.6 56.8----
2024-03-01 08:12 pmNNW 8.0 8.9----30.10- 60.6 56.8----
2024-03-01 08:06 pm N 8.0 8.9----30.09- 60.4 56.8----
2024-03-01 08:00 pm N 8.0 8.9----30.09+0.02 60.6 56.8----
2024-03-01 07:54 pm N 8.0 11.1----30.09- 60.6 56.8----
2024-03-01 07:48 pm N 9.9 11.1----30.09- 60.8 56.8----
2024-03-01 07:42 pm N 8.0 8.9----30.09- 60.6 56.8----
2024-03-01 07:36 pm N 6.0 8.0----30.09- 60.8 56.8----
2024-03-01 07:30 pm N 6.0 7.0----30.09- 60.8 56.8----
2024-03-01 07:24 pm N 6.0 7.0----30.08- 60.6 56.8----
2024-03-01 07:18 pm N 6.0 7.0----30.08- 60.4 56.8----
2024-03-01 07:12 pmNNW 4.1 7.0----30.08- 60.6 56.8----
2024-03-01 07:06 pm N 8.0 8.9----30.08- 60.4 56.8----
2024-03-01 07:00 pmNNW 8.0 13.0----30.08+0.02 60.4 56.8----
2024-03-01 06:54 pm NW 13.0 15.0----30.08- 60.6 56.8----
2024-03-01 06:48 pmNNW 14.0 15.9----30.09- 60.6 56.8----
2024-03-01 06:42 pmNNW 12.0 13.0----30.08- 60.6 56.8----
2024-03-01 06:36 pmNNW 8.9 9.9----30.07- 60.6 56.8----
2024-03-01 06:30 pmNNW 5.1 6.0----30.06- 60.4 56.8----
2024-03-01 06:24 pmNNW 5.1 6.0----30.06- 60.4 56.8----
2024-03-01 06:18 pm N 4.1 7.0----30.06- 60.4 56.8----
2024-03-01 06:12 pmNNW 5.1 5.1----30.06- 60.4 57.0----
2024-03-01 06:06 pm N 5.1 6.0----30.06- 60.4 57.0----
2024-03-01 06:00 pmNNW 5.1 6.0----30.06+0.00 60.4 57.0----
2024-03-01 05:54 pmNNW 2.9 4.1----30.07- 60.4 57.0----
2024-03-01 05:48 pm NW 5.1 5.1----30.07- 60.4 57.0----
2024-03-01 05:42 pmNNW 4.1 5.1----30.07- 60.4 57.0----
2024-03-01 05:36 pmNNW 6.0 7.0----30.07- 60.4 57.0----
2024-03-01 05:30 pm N 4.1 5.1----30.07- 60.3 57.0----
2024-03-01 05:24 pmNNE 2.9 6.0----30.07- 60.4 57.0----
2024-03-01 05:18 pm N 6.0 6.0----30.06- 60.4 57.0----
2024-03-01 05:12 pm N 5.1 7.0----30.06- 60.3 57.0----
2024-03-01 05:06 pm N 7.0 8.9----30.07- 60.3 57.0----
2024-03-01 05:00 pmNNW 8.9 8.9----30.07+0.03 60.4 57.0----
2024-03-01 04:54 pm N 8.9 11.1----30.06- 60.4 57.0----
2024-03-01 04:48 pm NW 9.9 12.0----30.06- 61.0 57.0----
2024-03-01 04:42 pmNNW 8.9 11.1----30.06- 61.0 57.0----
2024-03-01 04:36 pmNNW 6.0 8.9----30.05- 61.0 57.0----
2024-03-01 04:30 pmNNW 8.0 13.0----30.05- 60.8 57.0----
2024-03-01 04:24 pm NW 11.1 13.0----30.06- 60.8 57.0----
2024-03-01 04:18 pm NW 12.0 13.0----30.06- 60.6 57.0----
2024-03-01 04:12 pmWNW 12.0 15.9----30.07- 60.4 57.0----
2024-03-01 04:06 pmWNW 13.0 15.9----30.07- 60.4 57.0----
2024-03-01 04:00 pmWNW 15.0 17.1----30.06+0.02 60.4 57.0----
2024-03-01 03:54 pmWNW 15.0 18.1----30.06- 60.6 57.0----
2024-03-01 03:48 pmWNW 13.0 15.0----30.06- 60.1 57.0----
2024-03-01 03:42 pmWNW 12.0 14.0----30.06- 60.1 57.0----
2024-03-01 03:36 pmWNW 14.0 15.0----30.05- 59.7 57.0----
2024-03-01 03:30 pmWNW 14.0 15.0----30.05- 59.9 57.0----
2024-03-01 03:24 pmWNW 15.0 18.1----30.05- 59.9 56.8----
2024-03-01 03:18 pmWNW 14.0 15.9----30.06- 60.1 57.0----
2024-03-01 03:12 pmWNW 15.0 17.1----30.04- 60.1 56.8----
2024-03-01 03:06 pm NW 15.9 17.1----30.05- 60.3 56.8----
2024-03-01 03:00 pm NW 15.9 18.1----30.06+0.00 60.8 56.8----
2024-03-01 02:54 pmWNW 9.9 12.0----30.05- 61.5 56.8----
2024-03-01 02:48 pmWNW 9.9 12.0----30.06- 61.3 56.8----
2024-03-01 02:42 pmWNW 11.1 14.0----30.06- 61.2 56.8----
2024-03-01 02:36 pmWNW 13.0 15.0----30.06-- 56.7----
2024-03-01 02:30 pm NW 12.0 14.0----30.06-- 56.7----
2024-03-01 02:24 pm W 8.9 13.0----30.05-- 56.7----
2024-03-01 02:18 pmWNW 12.0 14.0----30.05-- 56.7----
2024-03-01 02:12 pmWNW 12.0 14.0----30.04-- 56.7----
2024-03-01 02:06 pmWNW 14.0 17.1----30.05-- 56.7----
2024-03-01 02:00 pmWNW 12.0 15.0----30.05-0.05- 56.5----
2024-03-01 01:54 pmWNW 9.9 12.0----30.04-- 56.5----
2024-03-01 01:48 pmWNW 12.0 15.9----30.04-- 56.3----
2024-03-01 01:42 pm SW 12.0 15.9----30.04- 71.8 56.3----
2024-03-01 01:36 pm SW 11.1 18.1----30.04- 71.4 56.3----
2024-03-01 01:30 pmSSW 13.0 18.1----30.04- 71.2 56.3----
2024-03-01 01:24 pm SW 9.9 14.0----30.04- 70.7 56.3----
2024-03-01 01:18 pmSSW 8.0 9.9----30.04- 70.0 56.3----
2024-03-01 01:12 pmSSW 8.0 9.9----30.04- 69.8 56.3----
2024-03-01 01:06 pmSSW 8.9 11.1----30.04- 70.0 56.3----
2024-03-01 01:00 pmSSW 6.0 8.9----30.04-0.05 70.3 56.3----
2024-03-01 12:54 pm S 7.0 8.0----30.05- 70.7 56.3----
2024-03-01 12:48 pm S 6.0 8.0----30.06- 70.7 56.3----
2024-03-01 12:42 pm S 8.0 11.1----30.06- 70.5 56.3----
2024-03-01 12:36 pm S 8.0 11.1----30.06- 70.7 56.3----
2024-03-01 12:30 pm S 8.9 12.0----30.07- 71.1 56.3----
2024-03-01 12:24 pm S 8.9 13.0----30.07- 71.1 56.3----
2024-03-01 12:18 pm S 8.0 14.0----30.07- 70.5 56.3----
2024-03-01 12:12 pm S 9.9 15.0----30.06- 70.3 56.3----
2024-03-01 12:06 pmSSE 12.0 15.0----30.05- 70.2 56.3----
2024-03-01 12:00 pmSSE 11.1 14.0----30.06-0.03 70.2 56.3----
2024-03-01 11:54 amSSE 11.1 14.0----30.07- 70.3 56.3----
2024-03-01 11:48 am S 9.9 14.0----30.09- 70.2 56.3----
2024-03-01 11:42 am S 9.9 13.0----30.09- 70.3 56.3----
2024-03-01 11:36 am S 9.9 15.0----30.09- 70.3 56.3----
2024-03-01 11:30 am S 11.1 15.0----30.08- 70.3 56.1----
2024-03-01 11:24 amSSE 13.0 15.9----30.08- 70.3 56.1----
2024-03-01 11:18 amSSE 13.0 15.9----30.09- 70.2 56.1----
2024-03-01 11:12 am S 11.1 15.0----30.09- 70.0 56.1----
2024-03-01 11:06 am S 9.9 14.0----30.10- 69.8 56.1----
2024-03-01 11:00 amSSE 12.0 15.0----30.09+0.01 69.6 56.1----
2024-03-01 10:54 amSSE 9.9 13.0----30.09- 69.6 56.1----
2024-03-01 10:48 am S 8.9 13.0----30.10- 69.6 56.1----
2024-03-01 10:42 amSSE 11.1 14.0----30.09- 69.6 56.1----
2024-03-01 10:36 amSSE 9.9 15.0----30.09- 69.8 56.1----
2024-03-01 10:30 amSSE 8.0 11.1----30.10- 70.0 56.1----
2024-03-01 10:24 amSSE 9.9 14.0----30.09- 69.8 56.1----
2024-03-01 10:18 amSSE 9.9 13.0----30.09- 69.6 56.1----
2024-03-01 10:12 amSSE 8.9 12.0----30.09- 70.0 56.1----
2024-03-01 10:06 am SE 8.0 9.9----30.10- 70.0 56.1----
2024-03-01 10:00 am SE 8.0 9.9----30.09+0.02 70.0 56.1----
2024-03-01 09:54 am SE 8.0 9.9----30.09- 69.6 56.1----
2024-03-01 09:48 am SE 8.0 8.9----30.09- 69.6 56.1----
2024-03-01 09:42 amSSE 8.0 8.9----30.09- 69.4 56.1----
2024-03-01 09:36 amSSE 8.0 11.1----30.10- 69.6 56.1----
2024-03-01 09:30 amSSE 6.0 11.1----30.10- 69.4 56.1----
2024-03-01 09:24 amSSE 8.0 11.1----30.09- 69.4 56.1----
2024-03-01 09:18 am SE 8.9 11.1----30.09- 69.1 56.3----
2024-03-01 09:12 am SE 7.0 11.1----30.10- 68.7 56.1----
2024-03-01 09:06 am SE 8.9 9.9----30.10- 67.8 56.1----
2024-03-01 09:00 am SE 8.0 9.9----30.09+0.01 67.5 55.9----
2024-03-01 08:54 am SE 9.9 12.0----30.09- 67.1 55.9----
2024-03-01 08:48 am SE 9.9 11.1----30.09- 66.9 55.9----
2024-03-01 08:42 am SE 9.9 12.0----30.09- 66.9 55.9----
2024-03-01 08:36 am SE 11.1 13.0----30.09- 66.7 55.9----
2024-03-01 08:30 am SE 12.0 13.0----30.09- 66.6 55.9----
2024-03-01 08:24 am SE 8.9 12.0----30.09- 66.4 55.9----
2024-03-01 08:18 am SE 8.0 11.1----30.08- 66.2 55.8----
2024-03-01 08:12 am SE 6.0 8.9----30.09- 66.0 55.8----
2024-03-01 08:06 am SE 6.0 8.0----30.09- 65.5 55.9----
2024-03-01 08:00 amESE 6.0 7.0----30.09-0.01 64.4 55.8----
2024-03-01 07:54 amESE 6.0 7.0----30.09- 63.7 55.8----
2024-03-01 07:48 amESE 6.0 6.0----30.09- 63.7 55.8----
2024-03-01 07:42 amESE 4.1 5.1----30.09- 63.7 55.8----
2024-03-01 07:36 amESE 2.9 4.1----30.09- 63.1 55.8----
2024-03-01 07:30 am E 5.1 7.0----30.08- 63.1 55.9----
2024-03-01 07:24 am E 6.0 8.0----30.08- 63.7 55.9----
2024-03-01 07:18 amESE 6.0 7.0----30.09- 63.5 55.9----
2024-03-01 07:12 amESE 6.0 7.0----30.09- 63.5 55.6----
2024-03-01 07:06 amESE 6.0 8.0----30.09- 63.3 55.8----
2024-03-01 07:00 amESE 8.0 8.9----30.08+0.01 63.1 55.8----
2024-03-01 06:54 amESE 6.0 8.0----30.07- 62.8 55.8----
2024-03-01 06:48 amESE 7.0 8.0----30.07- 62.4 55.8----
2024-03-01 06:42 amESE 7.0 8.9----30.07- 62.4 55.6----
2024-03-01 06:36 amESE 8.0 8.0----30.08- 62.4 55.6----
2024-03-01 06:30 amESE 7.0 8.0----30.08- 62.1 55.9----
2024-03-01 06:24 am SE 7.0 8.9----30.09- 62.1 56.1----
2024-03-01 06:18 am SE 7.0 8.0----30.09- 62.1 56.1----
2024-03-01 06:12 am SE 7.0 8.9----30.08- 61.9 55.9----
2024-03-01 06:06 amESE 8.9 9.9----30.08- 61.9 55.9----
2024-03-01 06:00 amESE 8.9 12.0----30.08+0.02 61.3 55.9----
2024-03-01 05:54 am E 12.0 14.0----30.06- 61.0 55.9----
2024-03-01 05:48 amESE 12.0 15.9----30.06- 60.6 55.9----
2024-03-01 05:42 amESE 14.0 15.9----30.08- 60.6 55.9----
2024-03-01 05:36 amESE 13.0 15.0----30.09- 60.3 55.9----
2024-03-01 05:30 am SE 11.1 13.0----30.10- 60.4 55.9----
2024-03-01 05:24 am SE 7.0 9.9----30.10- 60.6 55.9----
2024-03-01 05:18 amESE 8.0 11.1----30.10- 60.4 55.9----
2024-03-01 05:12 amESE 8.0 9.9----30.10- 60.6 55.9----
2024-03-01 05:06 amESE 6.0 8.9----30.09- 60.1 56.1----
2024-03-01 05:00 am E 8.0 9.9----30.10-0.01 59.9 56.3----
2024-03-01 04:54 am E 8.9 9.9----30.10- 59.9 56.3----
2024-03-01 04:48 am E 5.1 7.0----30.10- 59.5 56.1----
2024-03-01 04:42 amESE 2.9 6.0----30.10- 58.8 56.3----
2024-03-01 04:36 am E 6.0 8.9----30.10- 58.6 56.3----
2024-03-01 04:30 am E 8.0 13.0----30.10- 58.5 56.3----
2024-03-01 04:24 amENE 11.1 13.0----30.09- 58.5 56.3----
2024-03-01 04:18 amENE 12.0 15.0----30.08- 58.6 56.3----
2024-03-01 04:12 amENE 13.0 18.1----30.08- 58.6 56.3----
2024-03-01 04:06 amENE 15.9 18.1----30.07- 58.3 56.5----
2024-03-01 04:00 amENE 17.1 20.0----30.07-0.05 58.1 56.5----
2024-03-01 03:54 amENE 17.1 19.0----30.06- 58.1 56.5----
2024-03-01 03:48 am E 15.9 17.1----30.06- 57.9 56.5----
2024-03-01 03:42 am E 12.0 15.0----30.09- 57.7 56.3----
2024-03-01 03:36 amENE 9.9 14.0----30.10- 57.9 56.5----
2024-03-01 03:30 amENE 13.0 18.1----30.09- 57.6 56.5----
2024-03-01 03:24 amENE 14.0 19.0----30.09- 57.6 56.5----
2024-03-01 03:18 amENE 15.0 19.0----30.09- 57.4 56.7----
2024-03-01 03:12 amENE 17.1 21.0----30.07- 57.2 56.5----
2024-03-01 03:06 amENE 18.1 22.9----30.07- 57.0 56.5----
2024-03-01 03:00 amENE 20.0 24.1----30.06-0.09 56.7 56.5----
2024-03-01 02:54 amENE 22.0 26.0----30.06- 56.5 56.3----
2024-03-01 02:48 amENE 21.0 26.0----30.05- 55.9 56.3----
2024-03-01 02:42 amENE 22.9 26.0----30.05- 55.4 56.3----
2024-03-01 02:36 am E 21.0 22.9----30.06- 55.2 56.3----
2024-03-01 02:30 am E 19.0 22.0----30.07- 55.8 56.3----
2024-03-01 02:24 amENE 21.0 24.1----30.08- 56.1 56.5----
2024-03-01 02:18 amENE 22.0 24.1----30.07- 55.9 56.5----
2024-03-01 02:12 amENE 20.0 22.9----30.08- 55.9 56.5----
2024-03-01 02:06 amENE 19.0 21.0----30.09- 55.9 56.5----
2024-03-01 02:00 amENE 15.9 19.0----30.11-0.06 56.1 56.3----
2024-03-01 01:54 amENE 18.1 19.0----30.12- 55.9 56.3----
2024-03-01 01:48 am NE 15.9 17.1----30.13- 56.1 56.3----
2024-03-01 01:42 amENE 15.0 18.1----30.13- 56.3 56.1----
2024-03-01 01:36 am NE 14.0 18.1----30.13- 56.3 56.3----
2024-03-01 01:30 am NE 17.1 19.0----30.13- 56.1 56.3----
2024-03-01 01:24 amENE 15.9 19.0----30.13- 56.1 56.3----
2024-03-01 01:18 amENE 15.0 19.0----30.13- 56.1 56.3----
2024-03-01 01:12 amENE 15.0 18.1----30.14- 55.9 56.3----
2024-03-01 01:06 amENE 15.0 21.0----30.14- 56.1 56.5----
2024-03-01 01:00 amENE 21.0 25.1----30.12-0.13 55.9 56.3----
2024-03-01 12:54 am NE 19.0 22.9----30.12- 55.8 56.3----
2024-03-01 12:48 am NE 20.0 22.9----30.12- 55.8 56.1----
2024-03-01 12:42 am NE 19.0 22.0----30.13- 55.8 56.5----
2024-03-01 12:36 am NE 18.1 20.0----30.14- 55.6 56.1----
2024-03-01 12:30 am NE 18.1 20.0----30.14- 55.9 56.3----
2024-03-01 12:24 amENE 20.0 22.0----30.13- 56.3 56.5----
2024-03-01 12:18 amENE 19.0 21.0----30.14- 56.3 56.5----
2024-03-01 12:12 amENE 18.1 20.0----30.15- 56.5 56.3----
2024-03-01 12:06 am NE 17.1 21.0----30.16- 56.3 56.5----
2024-03-01 12:00 amENE 19.0 24.1----30.15-0.02- 56.7----
2024-02-29 11:54 pm E 20.0 25.1----30.14-- 56.7----